User: anonymous   Login
Location: Enborne
(51.3833°N, 1.3667°W)
Time: 17:32:56
(UTC+00:00)
Language:

USA 238 DEB - Orbit

View from above orbital plane
View from above orbital plane
View from above satellite
View from above satellite

Ground track
Ground track

The orbit data is extracted from the following two-line orbital elements,

1 38773U 12048P   20327.15933573 0.00000000  00000-0  00000-0 0    06
2 38773  63.4504 349.7394 0140031   0.4576 359.5424 13.40812783    01
Epoch (UTC): 22 November 2020 03:49:26
Eccentricity: 0.0140031
inclination: 63.4504°
perigee height: 1001 km
apogee height: 1211 km
right ascension of ascending node: 349.7394°
argument of perigee: 0.4576°
revolutions per day: 13.40812783
mean anomaly at epoch: 359.5424°
orbit number at epoch: 0

The dashed part of the orbit path shows where the satellite is in the earth's shadow,  

DLR